ORION (54257 NORAD) Tracking and Keplerian Element Data

This shows tracking and keplerian element data for the satellite.

Feedback or suggestion? Click here.




ElementValue
Catalog54257
NameORION
Epoch Orbit3
Epoch Day320.38
Epoch Year2022
RAAN10.56
Inclination30.528
Eccentricity0.9646414
Argument of Perigee20.926
Mean Anonmoly1.049
Mean Motion0.10079459
Decay Rate-0.00015874
L11 54257U 22156A 22320.38000000 -.00015874 00000+0 00000+0 0 9993
L22 54257 30.5280 10.5600 9646414 20.9260 1.0490 0.10079459 30



Live tracking and technical data element details for ORION (NORAD 54257). ORION can be tracked NOW for your location showing map with azimuth and elevation plus other details from your city location.







IsCatalogInMostPopularTable: catalog: 54257, numindb: 4
Update: records affected: 1



GetName: 54257 ORION

Hit Count: updated at: Sun, 04 Dec 2022 23:00:40 GMT